[[{"header":{"parameterUnit":"m.s-1","parameterCategory":1,"la1":30.2991,"la2":30.254,"lo1":-89.0895,"lo2":-89.0444,"dy":0.0017,"dx":0.0017,"nx":28,"ny":28,"refTime":"2023-08-29T03:00:00:Z","depth":0,"parameterNumber":2,"parameterNumberName":"U-component_of_WINDS"},"data":[0,0,0,0,0,0,0,0,0,0,0,0,0,0,0,0,0,0,0,0,0,0,0,0,0,0,0,0,0,0,0,0,0,0,0,0,0,0,0,0,0,0,0,0,0,0,0,0,0,0,0,0,0,0,0,0,0,0,-2.8414,-2.8414,0,-2.8448,-2.8449,-2.8449,-2.8363,-2.8361,-2.8358,-2.8355,-2.839,-2.8393,-2.8396,0,0,0,0,0,0,0,0,0,0,0,0,0,-2.8272,-2.8275,-2.8414,-2.8414,-2.8415,-2.8448,-2.8449,-2.8449,-2.8364,-2.836,-2.8357,-2.8354,-2.8388,-2.8393,-2.8397,0,0,0,0,0,0,0,0,0,0,0,0,0,-2.8323,-2.8276,-2.8414,-2.8376,-2.8373,-2.8448,-2.8449,-2.8449,-2.8364,-2.836,-2.8356,-2.8353,-2.8387,-2.8392,-2.8397,-2.851,0,0,-2.8413,-2.8415,0,0,0,0,0,0,0,0,-2.832,-2.8328,-2.8381,-2.8379,-2.8376,-2.8397,-2.8411,-2.847,-2.8365,-2.8368,-2.8355,-2.8351,-2.8395,-2.84,-2.8415,-2.8512,-2.8513,-2.8413,-2.8417,-2.8419,-2.842,0,0,0,0,0,0,0,-2.8317,-2.8326,-2.8427,-2.8382,-2.8379,-2.8357,-2.836,-2.8422,-2.8404,-2.8367,-2.8361,-2.8366,-2.8393,-2.841,-2.8415,-2.8514,-2.8413,-2.8418,-2.8421,-2.8423,-2.8705,-2.8709,0,0,0,0,0,0,-2.8318,-2.8324,-2.8426,-2.8428,-2.8337,-2.8363,-2.8366,-2.8394,-2.8403,-2.84,-2.837,-2.8362,-2.8403,-2.8409,-2.8416,-2.8549,-2.8419,-2.8424,-2.8427,-2.87,-2.8706,-2.871,0,0,0,0,0,0,-2.8316,-2.8328,-2.8425,-2.8375,-2.8385,-2.837,-2.8402,-2.8397,-2.8414,-2.8405,-2.8401,-2.8391,-2.84,-2.8409,-2.8487,-2.8549,-2.8426,-2.8431,-2.8695,-2.8702,-2.8708,-2.8816,0,0,0,0,0,0,-2.8312,-2.8328,-2.8371,-2.8376,-2.8388,-2.8497,-2.8406,-2.8401,-2.8424,-2.8414,-2.8424,-2.8421,-2.8398,-2.848,-2.8493,-2.8554,-2.8435,-2.869,-2.8698,-2.8706,-2.8807,-2.8825,-2.8841,0,0,0,0,0,-2.8307,-2.84,-2.8374,-2.8386,-2.8442,-2.85,-2.8507,-2.8479,-2.8429,-2.8472,-2.8466,-2.8421,-2.854,-2.8489,-2.8502,-2.8566,-2.8686,-2.8696,-2.8705,-2.8799,-2.8821,-2.8841,0,0,0,0,0,0,-2.8402,-2.84,-2.8371,-2.8468,-2.8485,-2.8486,-2.8539,-2.8504,-2.8535,-2.8525,-2.8487,-2.849,-2.8576,-2.8578,-2.8522,-2.8675,-2.8604,-2.8617,-2.8671,-2.8692,-2.8709,-2.8707,-2.8439,0,0,0,0,0,-2.8434,-2.8482,-2.8477,-2.8563,-2.8573,-2.8555,-2.8579,-2.8556,-2.8572,-2.8579,-2.8578,-2.8595,-2.8636,-2.8664,-2.8702,-2.8806,-2.8807,-2.8856,-2.8874,-2.8888,-2.89,-2.8955,-2.8977,-2.8743,-2.8743,-2.8743,0,0,-2.8501,-2.8505,-2.8538,-2.8582,-2.8593,-2.8643,-2.8562,-2.8618,-2.8655,-2.8587,-2.8662,-2.8662,-2.8678,-2.8771,-2.8811,-2.8775,-2.8964,-2.89,-2.8912,-2.8916,-2.8967,-2.899,-2.9009,-2.875,-2.8748,-2.8747,0,0,-2.8648,-2.8657,-2.873,-2.8742,-2.8759,-2.8746,-2.8764,-2.877,-2.8768,-2.8842,-2.8792,-2.8835,-2.8907,-2.892,-2.8937,-2.909,-2.905,-2.9103,-2.9193,-2.9247,-2.9266,-2.9282,-2.9337,-2.9357,-2.9114,-2.9115,-2.9115,0,-2.8729,-2.8803,-2.8771,-2.8832,-2.8852,-2.8794,-2.8867,-2.888,-2.8909,-2.8924,-2.8883,-2.8972,-2.8979,-2.9074,-2.9111,-2.9126,-2.9145,-2.9102,-2.9266,-2.9282,-2.9296,-2.9348,-2.9369,-2.9121,-2.912,-2.912,-2.9119,0,-2.8902,-2.8954,-2.9011,-2.904,-2.9067,-2.9134,-2.9111,-2.9143,-2.9117,-2.9108,-2.9184,-2.9191,-2.9228,-2.9249,-2.9224,-2.934,-2.9317,-2.9272,-2.92,-2.9326,-2.9373,-2.9393,-2.913,-2.9128,-2.9126,-2.9124,0,0,-2.911,-2.9121,-2.9143,-2.9155,-2.917,-2.9209,-2.9273,-2.931,-2.9338,-2.9359,-2.9411,-2.9473,-2.9431,-2.945,-2.9426,-2.9474,-2.9595,-2.9422,-2.9422,-2.9455,-2.9723,-2.9757,-2.9781,-2.9568,-2.9572,-2.9575,-2.9722,0,-2.9256,-2.9366,-2.9339,-2.9448,-2.9495,-2.944,-2.9495,-2.951,-2.9504,-2.9543,-2.9535,-2.958,-2.9521,-2.9532,-2.9577,-2.9571,-2.9648,-2.956,-2.9616,-2.9618,-2.9614,-2.9806,-2.9842,-2.9981,-2.974,-2.9743,-2.9746,0,-2.9441,-2.9471,-2.9584,-2.9591,-2.961,-2.966,-2.9692,-2.973,-2.9746,-2.9737,-2.9759,-2.9725,-2.9787,-2.9715,-2.98,-2.974,-2.9761,-2.9762,-2.9766,-2.9771,-2.969,-2.9815,-3.0024,-3.0045,-2.9775,-2.9772,-2.977,0,-2.9582,-2.965,-2.9727,-2.9739,-2.9749,-2.9786,-2.9791,-2.9802,-2.9827,-2.9854,-2.9869,-2.9904,-2.9923,-2.995,-2.9926,-2.9875,-3.0015,-2.994,-3.001,-3.0011,-3.0042,-3.0041,-3.0257,-3.0056,-3.0056,-3.0055,-3.0055,0,-2.9748,-2.982,-2.979,-2.9838,-2.9916,-2.9884,-2.9962,-2.9962,-2.9972,-3.0018,-2.9972,-3.0016,-2.9982,-3.0023,-3.0004,-3.0078,-3.0086,-3.0081,-3.0076,-3.0086,-3.0087,-3.0099,-3.0089,-3.0061,-3.0059,-3.0058,-3.0057,0,-2.9919,-2.9902,-2.9982,-2.9985,-2.9987,-3.0045,-3.0047,-3.0091,-3.0081,-3.0139,-3.0151,-3.0135,-3.0181,-3.016,-3.0208,-3.0196,-3.029,-3.0271,-3.0285,-3.028,-3.0351,-3.0345,-3.0584,-3.0614,-3.0393,-3.0395,-3.0397,0,-3.0027,-3.0081,-3.0089,-3.0117,-3.0126,-3.0171,-3.0195,-3.0166,-3.0193,-3.0215,-3.0256,-3.0297,-3.0329,-3.0404,-3.0397,-3.0433,-3.0415,-3.0496,-3.042,-3.0428,-3.0416,-3.0413,-3.0419,-3.0512,-3.0514,-3.0516,-3.0518,0,-3.0219,-3.0208,-3.0245,-3.028,-3.031,-3.0336,-3.0358,-3.0383,-3.0354,-3.0387,-3.0433,-3.0458,-3.0506,-3.0548,-3.058,-3.0585,-3.0547,-3.0542,-3.056,-3.0571,-3.0577,-3.0575,-3.0327,-3.0537,-3.0535,-3.0533,-3.0532,-3.0532,-3.0361,-3.0407,-3.042,-3.0463,-3.0476,-3.0498,-3.0539,-3.0534,-3.0573,-3.061,-3.059,-3.0644,-3.0658,-3.0696,-3.0706,-3.0748,-3.0716,-3.0742,-3.0748,-3.0755,-3.0765,-3.057,-3.0753,-3.0753,-3.0752,-3.0752,-3.0751,0,-3.0551,-3.0557,-3.0597,-3.0629,-3.0663,-3.0625,-3.0647,-3.0677,-3.0726,-3.0742,-3.0774,-3.0827,-3.0867,-3.0863,-3.09,-3.0934,-3.0918,-3.0945,-3.0942,-3.0944,-3.0791,-3.0772,-3.0957,-3.0957,-3.0957,-3.0957,-3.0957,-3.0957,-3.0654,-3.0729,-3.072,-3.0801,-3.0805,-3.0859,-3.0874,-3.0894,-3.0906,-3.0968,-3.1001,-3.0999,-3.1006,-3.1043,-3.1078,-3.1076,-3.1092,-3.1126,-3.1117,-3.0975,-3.0954,-3.0935,-3.0917,-3.1129,-3.113,-3.1266,-3.1267,-3.1268]},{"header":{"parameterUnit":"m.s-1","parameterCategory":1,"la1":30.2991,"la2":30.254,"lo1":-89.0895,"lo2":-89.0444,"dy":0.0017,"dx":0.0017,"nx":28,"ny":28,"refTime":"2023-08-29T03:00:00:Z","depth":0,"parameterNumber":3,"parameterNumberName":"V-component_of_WINDS"},"data":[0,0,0,0,0,0,0,0,0,0,0,0,0,0,0,0,0,0,0,0,0,0,0,0,0,0,0,0,0,0,0,0,0,0,0,0,0,0,0,0,0,0,0,0,0,0,0,0,0,0,0,0,0,0,0,0,0,0,-5.1742,-5.1743,0,-5.183,-5.1831,-5.1832,-5.1771,-5.1768,-5.1765,-5.1763,-5.1847,-5.1852,-5.1857,0,0,0,0,0,0,0,0,0,0,0,0,0,-5.1514,-5.1518,-5.1742,-5.1743,-5.1744,-5.183,-5.1831,-5.1833,-5.1771,-5.1768,-5.1765,-5.1762,-5.1846,-5.1851,-5.1857,0,0,0,0,0,0,0,0,0,0,0,0,0,-5.1608,-5.152,-5.1742,-5.1724,-5.1724,-5.183,-5.1831,-5.1833,-5.1772,-5.1768,-5.1764,-5.176,-5.1844,-5.1851,-5.1858,-5.1985,0,0,-5.188,-5.1883,0,0,0,0,0,0,0,0,-5.1603,-5.1617,-5.1726,-5.1726,-5.1725,-5.1786,-5.1782,-5.1884,-5.1773,-5.1754,-5.1763,-5.1758,-5.183,-5.1838,-5.1863,-5.1989,-5.1992,-5.1881,-5.1885,-5.1888,-5.189,0,0,0,0,0,0,0,-5.1597,-5.1613,-5.1777,-5.1727,-5.1727,-5.171,-5.1719,-5.1801,-5.1813,-5.1755,-5.1751,-5.1762,-5.1829,-5.1856,-5.1865,-5.1993,-5.188,-5.1887,-5.1891,-5.1894,-5.2225,-5.2229,0,0,0,0,0,0,-5.1593,-5.1608,-5.1774,-5.1779,-5.1653,-5.1717,-5.1727,-5.177,-5.1812,-5.1815,-5.1766,-5.1759,-5.1846,-5.1856,-5.1867,-5.2017,-5.1888,-5.1895,-5.1899,-5.222,-5.2226,-5.223,0,0,0,0,0,0,-5.1588,-5.1608,-5.177,-5.1693,-5.1712,-5.1726,-5.1774,-5.1774,-5.1802,-5.1821,-5.1822,-5.1792,-5.1843,-5.1857,-5.1956,-5.2019,-5.1898,-5.1905,-5.2215,-5.2222,-5.2228,-5.2319,0,0,0,0,0,0,-5.1582,-5.1607,-5.1657,-5.1694,-5.1716,-5.186,-5.1778,-5.1779,-5.1815,-5.1807,-5.1846,-5.1848,-5.1841,-5.1945,-5.1963,-5.2027,-5.191,-5.2209,-5.2218,-5.2226,-5.231,-5.2328,-5.2343,0,0,0,0,0,-5.1574,-5.1678,-5.166,-5.168,-5.178,-5.1864,-5.1876,-5.1868,-5.1821,-5.187,-5.1881,-5.1847,-5.201,-5.1956,-5.1975,-5.2042,-5.2205,-5.2216,-5.2225,-5.2303,-5.2324,-5.2342,0,0,0,0,0,0,-5.1646,-5.1683,-5.1663,-5.1783,-5.1821,-5.1853,-5.1915,-5.1891,-5.1942,-5.1932,-5.1917,-5.1926,-5.2029,-5.2046,-5.1985,-5.2166,-5.21,-5.2114,-5.2152,-5.2172,-5.2188,-5.2182,-5.1916,0,0,0,0,0,-5.1676,-5.1744,-5.1771,-5.1874,-5.1894,-5.1902,-5.1938,-5.1928,-5.1966,-5.1981,-5.2,-5.2037,-5.2096,-5.2135,-5.219,-5.2312,-5.2318,-5.2367,-5.2384,-5.2397,-5.2409,-5.2473,-5.2494,-5.2263,-5.2263,-5.2263,0,0,-5.1739,-5.1767,-5.181,-5.1889,-5.1918,-5.1985,-5.1916,-5.1991,-5.204,-5.1992,-5.2087,-5.2102,-5.2141,-5.2251,-5.2301,-5.2268,-5.2474,-5.241,-5.242,-5.2425,-5.2485,-5.2507,-5.2527,-5.227,-5.2269,-5.2268,0,0,-5.1887,-5.1916,-5.2005,-5.2035,-5.2079,-5.2083,-5.2104,-5.214,-5.2149,-5.2244,-5.2209,-5.2266,-5.2369,-5.2398,-5.2426,-5.2584,-5.2554,-5.2603,-5.2688,-5.275,-5.2768,-5.2784,-5.2839,-5.2859,-5.2615,-5.2615,-5.2615,0,-5.1958,-5.2062,-5.2052,-5.2131,-5.2165,-5.2126,-5.2214,-5.2243,-5.2302,-5.2326,-5.2289,-5.2416,-5.244,-5.2556,-5.2594,-5.2619,-5.2641,-5.2598,-5.2766,-5.2782,-5.2797,-5.2849,-5.287,-5.2621,-5.262,-5.262,-5.2619,0,-5.2146,-5.2218,-5.2284,-5.2344,-5.2386,-5.2469,-5.247,-5.2513,-5.2499,-5.2506,-5.2602,-5.2629,-5.2689,-5.2715,-5.2702,-5.2829,-5.2807,-5.2769,-5.2701,-5.2825,-5.2874,-5.2894,-5.2629,-5.2627,-5.2625,-5.2624,0,0,-5.2343,-5.2397,-5.2421,-5.2448,-5.2493,-5.2547,-5.2626,-5.2687,-5.2723,-5.2765,-5.283,-5.2917,-5.2881,-5.2913,-5.2903,-5.2957,-5.3079,-5.2912,-5.2912,-5.2941,-5.3218,-5.3246,-5.327,-5.3059,-5.3063,-5.3066,-5.3214,0,-5.2493,-5.2635,-5.2628,-5.2759,-5.2824,-5.2787,-5.2856,-5.289,-5.2898,-5.2953,-5.2961,-5.3023,-5.2972,-5.299,-5.3043,-5.3053,-5.3134,-5.3042,-5.3117,-5.312,-5.3108,-5.3295,-5.3326,-5.3465,-5.3233,-5.3236,-5.3239,0,-5.2688,-5.2738,-5.2876,-5.2911,-5.2938,-5.3,-5.3053,-5.3107,-5.3143,-5.3145,-5.3181,-5.3161,-5.3238,-5.317,-5.3275,-5.3213,-5.3243,-5.3252,-5.3257,-5.3263,-5.3186,-5.3305,-5.3509,-5.3529,-5.3269,-5.3267,-5.3264,0,-5.2816,-5.2918,-5.3013,-5.3037,-5.308,-5.3124,-5.3144,-5.3177,-5.3213,-5.3259,-5.3281,-5.3335,-5.3364,-5.3405,-5.3399,-5.335,-5.3506,-5.3437,-5.3508,-5.3508,-5.3542,-5.354,-5.3752,-5.3563,-5.3563,-5.3562,-5.3562,0,-5.2984,-5.307,-5.3072,-5.313,-5.3224,-5.3214,-5.3307,-5.3321,-5.335,-5.3409,-5.338,-5.3435,-5.3424,-5.3478,-5.3474,-5.3561,-5.3574,-5.3576,-5.3574,-5.3579,-5.3578,-5.3598,-5.3587,-5.3568,-5.3566,-5.3565,-5.3564,0,-5.3143,-5.3149,-5.325,-5.3283,-5.3292,-5.336,-5.3387,-5.3441,-5.3446,-5.3521,-5.3538,-5.3546,-5.3608,-5.3607,-5.3677,-5.3674,-5.378,-5.3767,-5.3769,-5.3766,-5.3836,-5.3829,-5.4067,-5.4097,-5.389,-5.3892,-5.3893,0,-5.325,-5.3315,-5.3355,-5.3394,-5.3416,-5.3478,-5.3515,-5.3507,-5.3546,-5.3592,-5.364,-5.37,-5.3748,-5.3848,-5.3859,-5.3912,-5.3899,-5.3979,-5.3907,-5.3909,-5.3899,-5.3895,-5.3901,-5.3993,-5.3996,-5.3998,-5.3999,0,-5.3438,-5.3437,-5.3493,-5.3549,-5.3595,-5.3638,-5.3677,-5.371,-5.3705,-5.375,-5.3815,-5.3852,-5.3924,-5.3983,-5.4034,-5.4051,-5.4024,-5.4022,-5.4041,-5.4046,-5.4044,-5.4045,-5.3806,-5.4016,-5.4015,-5.4013,-5.4012,-5.4012,-5.3574,-5.363,-5.3666,-5.3728,-5.3758,-5.3795,-5.3848,-5.386,-5.3914,-5.3974,-5.3965,-5.4036,-5.4069,-5.4135,-5.4156,-5.421,-5.4182,-5.4209,-5.4216,-5.4223,-5.4231,-5.4036,-5.4219,-5.4219,-5.4218,-5.4218,-5.4218,0,-5.376,-5.3781,-5.3839,-5.3896,-5.3944,-5.3917,-5.3958,-5.4,-5.4064,-5.4098,-5.4145,-5.4218,-5.4275,-5.429,-5.4344,-5.4384,-5.4373,-5.4399,-5.4395,-5.4399,-5.4254,-5.4231,-5.4407,-5.4407,-5.4407,-5.4407,-5.4407,-5.4407,-5.3862,-5.3955,-5.3958,-5.4063,-5.4083,-5.4155,-5.4181,-5.4214,-5.4241,-5.4325,-5.4372,-5.4382,-5.4408,-5.4463,-5.4513,-5.4516,-5.4537,-5.4567,-5.4565,-5.4428,-5.441,-5.4391,-5.437,-5.4572,-5.4572,-5.4705,-5.4707,-5.4708]}]]